STARLINK-1540 (46051 NORAD) Tracking and Keplerian Element Data

This shows tracking and keplerian element data for the satellite.

Feedback or suggestion? Click here.




ElementValue
Catalog46051
NameSTARLINK-1540
Epoch Orbit1882
Epoch Day338.6304693
Epoch Year2020
RAAN105.0298
Inclination53.0142
Eccentricity0.0001345
Argument of Perigee95.2881
Mean Anonmoly264.8261
Mean Motion15.06267236
Decay Rate0.00026126
L11 46051U 20055AA 20338.63046930 .00026126 00000-0 17726-2 0 9997
L22 46051 53.0142 105.0298 0001345 95.2881 264.8261 15.06267236 18820

Live tracking and technical data element details for STARLINK-1540 (NORAD 46051). STARLINK-1540 can be tracked NOW for your location showing map with azimuth and elevation plus other details from your city location.

Track the satellite on the map from your city or location and see movement details for azimuth, elevation, latitude, longitude, range, height, and movement on the map or in text.







IsCatalogInMostPopularTable: catalog: 46051, numindb: 26
Update: records affected: 1



GetName: 46051 STARLINK-1540

Hit Count: updated at: Sun, 06 Dec 2020 02:03:20 GMT